Погода Сытомино

Погода Сытомино : погода сейчас, прогноз погоды и архив. Всё, что Вы хотите узнать о погоде Сытомино!

Поиск расширенной информации на нашем сайте:

Другие новости

Новости СМИ2

Главная страница сайта

Новости сайта

03.07.2017

Напоминаем, что на нашем специализированном сайте Метеоцентр.Азия вы можете получить высокодетализированные автоматические прогнозы погоды по пунктам России, СНГ и мира в авиационном формате (включающие направление и скорость ветра, видимость, явления погоды, количество и форму облачности, нижнюю и верхнюю границу облачности).

Рекомендуем: художник

Погода Сытомино - сегодня

Время (UTC), дата Ветер
(°,м/с) 
Видим.   Явления Облачность Т
(°С)
Тd
(°С)
f(%) Тe
(°С)
Pmin
(гПа)
dP
(гПа)
Po
(мм)
O2
(г/м3)
Тmin Tmax R s Состояние
почвы
15 15.02.18 тихо ()   10 км    ясно 
-23.2 -25.6 81 -23  1030.5  0.9  769  341    -13.5       
18 15.02.18 тихо ()   10 км    ясно 
-25.8 -28.7 77 -26  1031.2  0.6  770  344           
21 15.02.18 тихо ()   10 км    10/0 средняя 
[Ac lent]
-26.5 -29.2 78 -27  1031.8  0.6  770  346           
00 16.02.18 220 (ЮЗ) 10 км    10/0 средняя, верхняя 
[Ac lent|Ci sp]
-25.3 -28.1 77 -26  1032.4  0.6  771  344           
03 16.02.18 тихо ()   10 км  слаб. снег  10/0 средняя 
[Ac As]
-23.5 -26.2 78 -24  1032.8  0.4  771  342  -26.8    0.0  33  равномерный
сухой снег
100% 
06 16.02.18 220 (ЮЗ) 10 км  {снег}  10/0 средняя, верхняя 
[Ac trans|Cs]
-19.9 -22.3 81 -20  1033.3  0.6  772  337           
09 16.02.18 220 (ЮЗ) 10 км    10/4 300 м средняя, верхняя 
[St|Ac trans|Ci fib]
-15.9 -18.9 78 -20  1033.2  772  332           
12 16.02.18 190 (Ю) 10 км    6/0 верхняя 
[Ci fib]
-16.3 -18.3 84 -19  1032.9  -0.3  771  332           
18 16.02.18 240 (ЮЗ) 10 км  слаб. снег  10/0 средняя 
[Ac As]
-13.9 -15.5 88 -17  1031.9  -0.7  771  329           
21 16.02.18 240 (ЮЗ) 10 км  слаб. снег  10/5 300 м средняя 
[Frnb|As op]
-10.5 -11.5 92 -14  1030.8  -1  770  324           
00 17.02.18 230 (ЮЗ) 10 км  {снег}  10/10 300 м 
[St]
-10.3 -11.3 92 -13  1030.2  -0.6  769  323           
03 17.02.18 200 (Ю) 10 км    10/0 средняя, верхняя 
[Ac lent|Ci sp]
-15.6 -17.4 86 -18  1029.7  -0.5  769  330  -16.4    0.2  35  равномерный
сухой снег
100% 
06 17.02.18 250 (З) 10 км    3/0 средняя, верхняя 
[Ac lent|Ci fib]
-14.3 -16 87 -14  1029.2  -0.5  769  328           
09 17.02.18 240 (ЮЗ) 10 км    ясно 
-11.8 -14.4 81 -14  1028.6  -0.6  768  325           
12 17.02.18 200 (Ю) 10 км    ясно 
-13.5 -15.8 83 -16  1028.1  -0.6  768  327           
18 17.02.18 220 (ЮЗ) 10 км    4/0 верхняя 
[Ci fib]
-14.7 -16.3 88 -15  1026.4  -1.1  766  328           
21 17.02.18 230 (ЮЗ) 10 км    10/0 средняя 
[Ac lent]
-10.9 -13 84 -13  1025.4  -0.9  766  323           
00 18.02.18 210 (ЮЗ) 10 км    8/0 средняя, верхняя 
[Ac lent|Ci fib]
-13.6 -15 89 -14  1024.8  -0.7  765  326           
03 18.02.18 240 (ЮЗ) 10 км  {ливн. осадки}  9/6 1000 м средняя, верхняя 
[Sc|Ac lent|Ci fib]
-14.1 -15.5 89 -14  1024.4  -0.3  765  326  -14.8    0.3  35  равномерный
сухой снег
100% 
06 18.02.18 240 (ЮЗ) 10 км  в посл. час ливневой снег  9/9 600 м кучево-дожд. 
[Cb cap]
-9.6 -11 90 -13  1023.8  -0.6  765  320           
09 18.02.18 230 (ЮЗ) 10 км    4/0 средняя, верхняя 
[Ac lent|Ci sp]
-7.8 -11 78 -11  1023.5  -0.2  764  318           
12 18.02.18 230 (ЮЗ) 10 км    10/8 600 м средняя, верхняя 
[Sc|Ac lent|Ci sp]
-8 -11.1 78 -11  1023.4  0.1  764  318           
18 18.02.18 260 (З) 10 км  {ливн. осадки}  8/0 средняя, верхняя 
[Ac trans|Ci fib]
-10.6 -12 89 -10  1023.1  -0.4  764  321           
21 18.02.18 230 (ЮЗ) 10 км  слаб. ливневой снег  10/10 600 м кучево-дожд. 
[Cb cap]
-7.6 -8.4 94 -9  1022.9  0.1  764  318           
00 19.02.18 210 (ЮЗ) 10 км  слаб. ливневой снег  10/10 600 м кучево-дожд. 
[Cb cap]
-8.3 -9.1 94 -8  1022.7  -0.2  764  318           
Время (UTC), дата Ветер
(°,м/с) 
Видим.   Явления Облачность Т
(°С)
Тd
(°С)
f(%) Тe
(°С)
Pmin
(гПа)
dP
(гПа)
Po
(мм)
O2
(г/м3)
Тmin Tmax R s Состояние
почвы

Для получения пояснительной информации подведите курсор к названию столбца.

ПОГОДА Сытомино - архив

Всё, что Вы хотите узнать о погоде Сытомино - удобно и подробно!

Выберите нужную дату (начиная с 1 января 2015* года) и нажмите кнопку "Найти".
Будут отображены архивные сводки погоды по пункту Сытомино, начиная с указанной даты.


Отображать данные в формате CSV (для использования в таблицах Excel)


Внимание! Наш архив погоды предназначен исключительно для личного некоммерческого использования в познавательных целях. Если Вам необходимы официальные справки о состоянии погоды (для производственных, юридических, коммерческих и т.п. целей), обращайтесь в органы Росгидромета.

*Примечание: данная дата относится к архиву по метеостанциям СССР (Россия, СНГ, Балтия).
Архив по метеостанциям Зарубежной Европы и Азии (кроме Китая) хранится 10 дней, по другим регионам земного шара (Китай, Африка, Америка, Австралия, Океания) - 1 день.

Сытомино - район местоположения метеостанции


Название, широта, долгота, высота метеостанции:
Сытомино 61.3°ш. 71.3°д. 33 м над ур. моря [Российская Федерация]

Дополнительная информация

В oтличие oт бoльшинства пoгoдных сайтoв мы публикуем пoдрoбную метеoинфoрмацию в детальнoм прoфессиoнальнoм фoрмате.

Характеристики температуры и влажнoсти вoздуха измеряются на высoте 2 м в тени вдали oт зданий и деревьев.
Скoрoсть ветра измеряется на высoте 10 м (на урoвне рoста челoвека скoрoсть ветра ниже в 1.5-2 раза). Если метеoстанция нахoдится в гoрoде или в лесу, тo скoрoсть ветра занижена на 2-4 м/с пo сравнению с oткрытым местoм. Скoрoсть ветра над акватoриями крупных рек и oзёр, а также на вершинах хoлмoв на 2-5 м/с выше, чем в oбычных услoвиях.
Атмoсфернoе давление в разных тoчках местнoсти мoжет значительнo oтличаться oт давления на метеoстанции, в зависимoсти oт услoвий рельефа (при пoдъёме на 10 м давление пoнижается примернo на 1 мм рт.ст.).